Regional Weather Roundup
Issued by NWS

Home | Current Version | Previous Version | Graphics & Text | Print | Product List | Glossary On
Versions: 1 2 3 4 5 6 7 8 9 10 11 12 13 14 15 16 17 18 19 20 21 22 23 24 25 26 27 28 29 30 31 32 33 34 35 36 37 38 39 40 41 42 43 44 45 46 47 48 49 50
000
ASUS44 KMEG 110910
RWRTN
TENNESSEE HOURLY STATE WEATHER ROUNDUP
NATIONAL WEATHER SERVICE MEMPHIS TN
300 AM CST MON DEC 11 2017

TNZ002-004-019-021-049-052-054-088>092-111000-
WEST TENNESSEE

CITY           SKY/WX    TMP DP  RH WIND       PRES   REMARKS
MEMPHIS INTL   CLEAR     38  31  76 CALM      30.18S
NWS MEMPHIS      N/A     33 N/A N/A MISG        N/A
JACKSON        CLEAR     35  29  78 SW3       30.16F
DYERSBURG      CLEAR     36  30  79 CALM      30.17S
SOMERVILLE     CLEAR     37  30  75 CALM      30.15F
COVINGTON      CLEAR     30  28  93 CALM      30.17S
UNION CITY     CLEAR     28  25  86 CALM      30.15F
BOLIVAR        CLEAR     39  30  70 CALM      30.16S
PARIS          CLEAR     30  27  86 CALM      30.14S
HUNTINGDON     CLEAR     30  27  86 CALM      30.14S
LEXINGTON      CLEAR     30  27  86 CALM      30.16S
SAVANNAH       CLEAR     28  28 100 CALM      30.16F
$$

TNZ008-025-027-028-033-062-065-066-111000-
NORTH MIDDLE TENNESSEE

CITY           SKY/WX    TMP DP  RH WIND       PRES   REMARKS
NASHVILLE      CLEAR     35  26  69 CALM      30.17S
PORTLAND       CLEAR     28  25  86 S7        30.14S WCI  21
CLARKSVILLE    CLEAR     30  23  75 CALM      30.15S
SMYRNA         CLEAR     28  24  85 CALM      30.18S
COOKEVILLE     CLEAR     27  23  86 S3        30.15F
GALLATIN       CLEAR     27  23  86 CALM      30.18F
CROSSVILLE     CLEAR     29  20  69 SW5       30.14S WCI  24
$$

TNZ061-075-076-078-094-096-097-111000-
SOUTH MIDDLE TENNESSEE

CITY           SKY/WX    TMP DP  RH WIND       PRES   REMARKS
FAYETTEVILLE   CLEAR     32  25  74 CALM      30.17R
TULLAHOMA      CLEAR     28  23  80 CALM      30.16S
WINCHESTER     CLEAR     30  25  80 CALM      30.18S
MCMINNVILLE    CLEAR     32  23  69 CALM      30.16S
COLUMBIA       CLEAR     30  27  86 SE3       30.14F
SHELBYVILLE    CLEAR     28  25  86 E3        30.16F
$$

TNZ017-018-042-046-047-111000-
NORTHEAST TENNESSEE

CITY           SKY/WX    TMP DP  RH WIND       PRES   REMARKS
TRI CITIES     CLEAR     23  21  92 CALM      30.15S
ELIZABETHTON   PTCLDY    23  21  93 CALM      30.15S
$$

TNZ012-013-036-069-073-074-111000-
CENTRAL EAST TENNESSEE

CITY           SKY/WX    TMP DP  RH WIND       PRES   REMARKS
KNOXVILLE      CLEAR     34  26  72 NW6       30.17S WCI  29
OAK RIDGE      CLEAR     29  24  82 S3        30.19S
DOWNTOWN KNOXV CLEAR     30  25  80 W3        30.18F
GATLINBURG     CLEAR     34  23  64 SW3       30.16S
MORRISTOWN     PTCLDY    34  23  64 CALM      30.14F
JACKSBORO      CLEAR     27  23  86 CALM      30.19S
$$

TNZ083-085-099-111000-
SOUTHEAST TENNESSEE

CITY           SKY/WX    TMP DP  RH WIND       PRES   REMARKS
CHATTANOOGA    CLEAR     30  25  81 CALM      30.19S
DAYTON         MOSUNNY   27  25  93 CALM      30.18S
$$

SKY/WX REPORTED AS FAIR MEANS FEW OR NO CLOUDS BELOW
12 THOUSAND FEET.





USA.gov is the U.S. government's official web portal to all federal, state and local government web resources and services.